Location: Unspecified
(50.7693°N, 0.0000°E)
Time: 23:05:39
(UTC+00:00)

Vanguard 3 - All Passes

Search period start: 20 June 2019 00:00
Search period end: 30 June 2019 00:00
Orbit: 508 x 3263 km, 33.3° (Epoch: 19 June)

Date Brightness Start Highest point End Pass type
(mag) Time Alt. Az. Time Alt. Az. Time Alt. Az.
20 Jun - 10:18:16 10° S 10:20:39 11° SSE 10:22:49 10° SE daylight
20 Jun - 12:26:29 10° SSW 12:32:22 17° S 12:36:45 10° SE daylight
20 Jun - 14:39:39 10° SW 14:43:14 14° SSW 14:46:06 10° SSE daylight
21 Jun - 11:11:43 10° SSW 11:18:27 17° SSE 11:23:29 10° SE daylight
21 Jun - 13:23:59 10° SW 13:29:51 19° S 13:34:06 10° SE daylight
22 Jun - 09:57:43 10° S 10:04:13 15° SSE 10:09:22 10° SE daylight
22 Jun - 12:08:27 10° SW 12:16:08 21° S 12:21:30 10° SE daylight
22 Jun - 14:22:26 10° SW 14:27:05 16° SSW 14:30:38 10° SSE daylight
23 Jun - 08:45:54 10° SSE 08:49:45 11° SSE 08:53:12 10° SE daylight
23 Jun - 10:53:10 10° SSW 11:02:04 21° S 11:08:22 10° SE daylight
23 Jun - 13:06:25 10° SW 13:13:39 22° S 13:18:39 10° SE daylight
23 Jun - 15:22:34 10° SW 15:24:00 11° SSW 15:25:20 10° SSW daylight
24 Jun - 09:38:29 10° SSW 09:47:40 19° SSE 09:54:32 10° ESE daylight
24 Jun - 11:50:30 10° SW 11:59:49 25° S 12:06:04 10° SE daylight
24 Jun - 14:05:10 10° WSW 14:10:52 18° SSW 14:15:03 10° SSE daylight
25 Jun - 08:25:08 10° S 08:33:02 15° SSE 08:39:31 10° ESE daylight
25 Jun - 10:34:47 10° SW 10:45:36 25° S 10:52:58 10° ESE daylight
25 Jun - 12:48:48 10° WSW 12:57:21 25° SSW 13:03:04 10° SE daylight
25 Jun - 15:05:22 10° SW 15:07:43 12° SSW 15:09:47 10° SSW daylight
26 Jun - 07:16:00 10° SSE 07:18:17 10° SE 07:20:30 10° SE daylight
26 Jun - 09:19:38 10° SSW 09:31:00 23° SSE 09:39:14 10° ESE daylight
26 Jun - 11:32:32 10° SW 11:43:23 28° S 11:50:28 10° SE daylight
26 Jun - 13:47:49 10° WSW 13:54:33 20° SSW 13:59:21 10° SSE daylight
27 Jun - 08:05:35 10° S 08:16:10 19° SSE 08:24:34 10° ESE daylight
27 Jun - 10:16:30 10° SW 10:28:58 29° S 10:37:22 10° ESE daylight
27 Jun - 12:31:09 10° WSW 12:40:57 27° SSW 12:47:23 10° SE daylight
27 Jun - 14:48:14 10° WSW 14:51:21 12° SW 14:54:00 10° SSW daylight
28 Jun - 06:53:42 10° SSE 07:01:16 14° SE 07:07:58 10° ESE daylight
28 Jun - 09:01:01 10° SSW 09:14:11 27° SSE 09:23:39 10° ESE daylight
28 Jun - 11:14:35 10° WSW 11:26:51 32° S 11:34:46 10° SE daylight
28 Jun - 13:30:25 10° WSW 13:38:09 21° SSW 13:43:33 10° SSE daylight
29 Jun - 07:46:33 10° SSW 07:59:11 23° SSE 08:09:07 10° ESE daylight
29 Jun - 09:58:18 10° SW 10:12:15 33° S 10:21:37 10° ESE daylight
29 Jun - 12:13:26 10° WSW 12:24:26 29° SSW 12:31:36 10° SE daylight
29 Jun - 14:31:05 10° WSW 14:34:53 13° SW 14:38:03 10° SSW daylight
